Flag for Tajikistan Weather past 2 weeks in Dushanbe, Tajikistan

Now
41 °F

Fog.


Feels Like: 39 °F
Forecast: 44 / 60 °F
Wind: 3 mph from Southeast

Location: Dushanbe Airport

Current Time: Mar 31, 2015 at 4:44:54 AM

Latest Report: Mar 31, 2015 at 4:00 AM


Visibility: 0 mi

Pressure: 30.01 "Hg

Humidity: 100%

Dew point: 41 °F

Location of DushanbeLocation

Historic Weather in Dushanbe — Graph

°F

Dushanbe temperature yesterday

Maximum temperature yesterday: 46 °F (at 4:00 AM)
Minimum temperature yesterday: 41 °F (at 9:30 PM)
Average temperature yesterday: 45 °F

Past Weeks' High & Low Weather Summary

 TemperatureHumidityPressure
High81 °F (Mar 23, 1:30 PM)100% (Mar 21, 3:30 AM)30.45 "Hg (Mar 21, 3:30 AM)
Low37 °F (Mar 25, 5:30 AM)21% (Mar 25, 2:30 PM)29.77 "Hg (Mar 24, 2:30 AM)
Average55 °F66%30.15 "Hg
* Reported Mar 16 3:00 AM — Mar 31 3:30 AM, Dushanbe, Weather by CustomWeather, © 2015

Note: Actual official high and low records may vary slightly from our data, if they occured in-between our weather recording intervals... More about our weather records

Advertising

Dushanbe weather history for previous 24 hours

 ConditionsComfort  
Time TempWeatherWind HumidityBarometerVisibility
3:30 AM
Tue, Mar 31
41 °FFog.1 mph100%30.01 "Hg0 mi
3:00 AM41 °FFog.No wind93%30.04 "Hg2 mi
2:30 AM41 °FFog.1 mph100%30.07 "Hg2 mi
2:00 AM41 °FLight rain. Fog.1 mph93%30.07 "Hg3 mi
1:30 AM41 °FLight rain. Fog.No wind100%30.09 "Hg3 mi
1:00 AM41 °FLight rain. Fog.1 mph100%30.09 "Hg3 mi
12:30 AM41 °FLight rain. Fog.1 mph100%30.12 "Hg3 mi
12:00 AM41 °FLight rain. Fog.1 mph100%30.12 "Hg3 mi
11:30 PM
Mon, Mar 30
41 °FLight rain. Fog.No wind93%30.15 "Hg3 mi
11:00 PM41 °FLight rain. Fog.1 mph100%30.15 "Hg3 mi
10:30 PM41 °FLight rain. Mostly cloudy.1 mph93%30.15 "Hg4 mi
10:00 PM41 °FLight rain. Overcast.3 mph93%30.15 "Hg4 mi
9:30 PM41 °FLight rain. Fog.3 mph93%30.15 "Hg3 mi
8:30 PM43 °FLight rain. Fog.3 mph93%30.15 "Hg3 mi
8:00 PM43 °FLight rain. Fog.3 mph100%30.15 "Hg3 mi
7:30 PM45 °FLight rain. Mostly cloudy.3 mph93%30.15 "Hg5 mi
7:00 PM45 °FLight rain. Mostly cloudy.3 mph87%30.15 "HgN/A
6:30 PM45 °FLight rain. Cloudy.3 mph87%30.15 "HgN/A
6:00 PM45 °FLight rain. Mostly cloudy.3 mph87%30.12 "HgN/A
5:30 PM46 °FSprinkles. Mostly cloudy.1 mph82%30.12 "HgN/A
5:00 PM46 °FSprinkles. More clouds than sun.3 mph82%30.12 "HgN/A
4:30 PM46 °FSprinkles. Mostly cloudy.3 mph87%30.12 "HgN/A
4:00 PM46 °FSprinkles. Cloudy.6 mph87%30.12 "HgN/A
3:30 PM46 °FSprinkles. More clouds than sun.3 mph87%30.12 "HgN/A
3:00 PM46 °FSprinkles. Cloudy.3 mph87%30.12 "HgN/A
2:30 PM46 °FSprinkles. More clouds than sun.3 mph87%30.15 "Hg6 mi
2:00 PM46 °FSprinkles. Mostly cloudy.3 mph87%30.15 "Hg6 mi
1:30 PM46 °FSprinkles. Cloudy.1 mph87%30.15 "HgN/A
1:00 PM46 °FSprinkles. Mostly cloudy.3 mph87%30.18 "HgN/A
12:30 PM46 °FSprinkles. Overcast.6 mph87%30.18 "HgN/A
12:00 PM46 °FSprinkles. Overcast.3 mph82%30.18 "HgN/A
11:30 AM46 °FSprinkles. Mostly cloudy.1 mph82%30.18 "HgN/A
10:30 AM46 °FLight rain. More clouds than sun.3 mph87%30.18 "Hg5 mi
10:00 AM46 °FLight rain. Mostly cloudy.1 mph87%30.18 "Hg5 mi
9:30 AM46 °FLight rain. Mostly cloudy.No wind87%30.18 "Hg6 mi
9:00 AM46 °FLight rain. Overcast.1 mph87%30.18 "Hg4 mi
8:30 AM46 °FLight rain. Mostly cloudy.3 mph87%30.15 "Hg4 mi
8:00 AM46 °FLight rain. Mostly cloudy.6 mph87%30.15 "Hg4 mi
7:30 AM46 °FRain. Fog.3 mph93%30.12 "Hg1 mi
7:00 AM45 °FLight rain. Fog.1 mph93%30.12 "Hg1 mi
6:30 AM45 °FFog.1 mph93%30.09 "Hg2 mi
6:00 AM45 °FOvercast.1 mph93%30.09 "Hg4 mi
5:30 AM45 °FFog.1 mph93%30.07 "Hg3 mi
5:00 AM45 °FFog.No wind93%30.09 "Hg3 mi
4:30 AM46 °FOvercast.1 mph87%30.07 "Hg5 mi
4:00 AM46 °FOvercast.1 mph87%30.07 "Hg6 mi
Weather by CustomWeather, © 2015

See weather overviewHow to use our weather pages